TIME,DELAY(SENSOR),PRES,T(CTD),SAL,OXYGEN,RAWTEMP,T(OPTODE),TCPHASE,FLUOR,BETA(BETA700),BETA(BETA412),BETA(BETA440),CDOM,C(CSC),ED(ED411.90),ED(ED443.80),ED(ED489.40),ED(ED554.70),LU(LU412.20),LU(LU443.80),LU(LU489.40),LU(LU555.00),COMP,TILTX,TILTX(TILTY),CHECK
1346080232,5804,496.5199890136719000,17.8574008941650400,36.5274009704589840,234.4134979248047000,174.5659027099609400,17.8556098937988280,31.5989704132080080,50,107,98,84,65,15461,2147488603,2147763913,2147560704,2147794450,2147307355,2147475712,2147707986,2148242925,1376,7,13,14984
1346080353,5803,484.8699951171875000,17.8985996246337900,36.5312995910644500,233.1233978271484400,173.1428070068359400,17.8989391326904300,31.6422290802001950,50,107,97,84,65,15459,2147487140,2147759195,2147555712,2147794477,2147307154,2147476379,2147710445,2148242587,2298,7,12,36900
1346080466,5804,474.0599975585937500,17.9083003997802730,36.5260009765625000,231.6378021240234400,172.7581024169922000,17.9106502532959000,31.7097206115722660,50,108,99,83,67,15461,2147486921,2147761389,2147558445,2147795757,2147300297,2147479652,2147708982,2148238957,2811,7,13,30289
1346080587,5803,462.6099853515625000,18.0095996856689450,36.5511016845703100,232.9940948486328000,169.9080963134765600,17.9974308013916000,31.6050796508789060,50,108,98,81,65,15459,2147484470,2147763620,2147557275,2147793792,2147311497,2147481645,2147706742,2148241078,3068,7,13,28026
1346080697,5803,452.1799926757812500,18.0611991882324220,36.5559005737304700,234.0778045654297000,168.1542968750000000,18.0508308410644530,31.5287609100341800,50,107,98,83,67,15461,2147487277,2147766683,2147558107,2147790976,2147310326,2147476425,2147709065,2148244324,3170,7,13,18677
1346080820,5801,440.6700134277344000,18.1056995391845700,36.5647010803222660,234.8159942626953000,166.4281005859375000,18.1033992767334000,31.4698104858398440,50,107,98,84,66,15461,2147486509,2147761773,2147557019,2147794605,2147314221,2147478747,2147706971,2148240923,3085,7,13,33718
1346080930,5803,430.5100097656250000,18.1909008026123050,36.5730018615722660,233.7192993164062500,163.7162017822265600,18.1860103607177730,31.4862899780273440,49,109,99,84,66,15455,2147489106,2147764662,2147555401,2147791204,2147312502,2147475766,2147707254,2148242742,3455,7,12,37308
1346081054,5805,419.2399902343750000,18.2376003265380860,36.5792999267578100,233.4718933105468800,161.9400939941406200,18.2401103973388670,31.4744300842285160,49,110,97,84,66,15454,2147492946,2147762432,2147556992,2147793682,2147313618,2147478811,2147706925,2148240109,945,8,12,34013
1346081175,5801,408.0599975585937500,18.3017997741699220,36.5849990844726560,232.7951965332031200,160.0355072021484400,18.2981395721435550,31.4816799163818360,50,109,100,83,66,15453,2147487643,2147763373,2147553481,2147792466,2147306267,2147477888,2147703689,2148242889,1346,7,13,10500
1346081296,5805,396.6300048828125000,18.3334999084472660,36.5858001708984400,231.8540039062500000,158.7882995605468800,18.3361396789550780,31.5104598999023440,49,109,97,82,67,15453,2147489773,2147761380,2147556598,2147790528,2147304292,2147480950,2147705398,2148237824,1754,7,13,14730
1346081409,5803,385.6700134277344000,18.3761005401611330,36.5901985168457000,231.0771942138672000,157.5726013183593800,18.3731803894042970,31.5322608947753900,50,108,98,83,67,15455,2147491318,2147761828,2147556690,2147793865,2147306934,2147481453,2147706139,2148239186,2079,7,13,18080
1346081519,5803,375.2999877929687500,18.4379997253417970,36.5982017517089840,230.2510986328125000,155.4770050048828000,18.4370403289794920,31.5446205139160160,50,108,98,84,66,15454,2147487597,2147761837,2147555053,2147794523,2147312429,2147481910,2147704155,2148241462,2092,8,13,49846
1346081640,5803,364.0299987792969000,18.5422992706298830,36.6077003479003900,229.0886993408203000,152.0054016113281200,18.5428600311279300,31.5550193786621100,50,109,99,84,66,15455,2147488274,2147761490,2147558811,2147789110,2147314249,2147482404,2147704000,2148242139,2752,8,13,53053
1346081763,5806,353.1499938964844000,18.6515998840332030,36.6138000488281250,225.8052978515625000,148.5063934326172000,18.6495208740234380,31.6716899871826170,50,108,98,83,66,15455,2147488146,2147763958,2147557275,2147790043,2147303232,2147479369,2147704795,2148238601,3500,7,13,22945
1346081895,5804,342.1300048828125000,18.7350997924804700,36.6164016723632800,226.0870056152343800,145.7760009765625000,18.7327804565429700,31.6207294464111330,50,108,98,84,67,15453,2147487579,2147761673,2147557741,2147788726,2147303597,2147485833,2147703689,2148238464,3233,7,12,20854
1346082030,5804,331.4400024414062500,18.8341999053955080,36.6208992004394500,225.7053985595703000,142.6179962158203000,18.8290996551513670,31.5976905822753900,50,108,99,83,67,15454,2147488109,2147758875,2147555465,2147793316,2147307876,2147480557,2147706971,2148239515,3099,8,13,50572
1346082173,5801,320.9700012207031000,18.9918003082275400,36.6274986267089840,224.4201965332031200,137.4494934082031200,18.9867801666259770,31.5928096771240230,50,108,97,83,66,15454,2147489508,2147760585,2147558308,2147789842,2147313197,2147486848,2147704283,2148239296,297,7,12,54532
1346082327,5805,309.7200012207031000,18.9999008178710940,36.6040000915527340,230.6909942626953000,137.0778045654297000,18.9981307983398440,31.2769203186035160,49,107,98,84,67,15453,2147493586,2147761499,2147558692,2147794459,2147307346,2147484507,2147708699,2148237668,669,7,12,60053
1346082448,5804,298.3800048828125000,19.0256004333496100,36.5746002197265600,240.5514068603515600,136.3139038085937500,19.0214290618896500,30.7979393005371100,50,107,99,82,66,15454,2147492233,2147761005,2147562578,2147787419,2147312612,2147481627,2147711067,2148236672,1418,7,12,19221
1346082569,5804,286.6799926757812500,19.1137008666992200,36.5722999572753900,244.4667968750000000,133.2673950195312500,19.1144199371337900,30.5781993865966800,50,107,96,83,65,15454,2147491904,2147758985,2147561563,2147790720,2147306203,2147487314,2147708178,2148242477,1285,7,12,37355
1346082681,5801,275.6900024414062500,19.2299995422363280,36.5797004699707000,246.8509063720703000,128.7630004882812500,19.2519302368164060,30.4117107391357420,50,110,97,83,64,15452,2147496100,2147764214,2147566793,2147790171,2147304914,2147483117,2147712978,2148238217,1256,8,12,15917
1346082791,5804,265.0000000000000000,19.1625995635986330,36.5246009826660160,244.5574035644531200,131.7118072509765600,19.1618995666503900,30.5536708831787100,52,110,97,84,64,15450,2147494976,2147764544,2147566272,2147789302,2147303762,2147485348,2147708233,2148238692,1417,8,12,27317
1346082901,5801,254.2100067138672000,19.4344005584716800,36.5834999084472660,246.9971923828125000,123.0062026977539000,19.4277706146240230,30.3299407958984380,61,114,97,85,63,15438,2147492114,2147767990,2147586770,2147790537,2147306157,2147486518,2147717156,2148238802,2182,8,12,8453
1346083013,5804,243.1799926757812500,19.5016002655029300,36.5892982482910160,247.3854980468750000,120.0745010375976600,19.5173397064209000,30.2745304107666000,61,111,99,83,64,15442,2147497005,2147765778,2147598326,2147789193,2147306797,2147490706,2147721298,2148235940,2481,7,12,58292
1346083123,5804,232.4799957275390600,19.5781002044677730,36.5936012268066400,248.6051940917968800,118.1016998291015600,19.5776405334472660,30.1946105957031250,58,111,98,85,64,15442,2147497389,2147765504,2147576740,2147785792,2147313298,2147485248,2147711926,2148237421,2621,7,12,21372
1346083244,5803,221.1799926757812500,19.8498992919921880,36.6315002441406250,246.1163024902343800,109.6620025634765600,19.8356990814209000,30.1963405609130860,61,112,99,85,65,15441,2147492525,2147765147,2147578130,2147790006,2147309549,2147484379,2147713206,2148238070,2642,8,12,40115
1346083367,5802,209.9100036621093800,19.9813995361328120,36.5980987548828100,254.4420928955078000,104.9968032836914000,19.9784297943115230,29.7706108093261720,64,113,99,85,66,15430,2147494921,2147769810,2147598445,2147789074,2147312914,2147490066,2147720493,2148234349,2836,8,12,40125
1346083488,5801,199.5000000000000000,20.2187004089355470,36.6058998107910160,263.8371887207031000,97.1201934814453100,20.2195892333984380,29.2751007080078120,63,116,99,85,65,15420,2147497526,2147787062,2147654336,2147787328,2147302875,2147502500,2147747593,2148240512,3389,8,12,6912
1346083543,5804,195.1399993896484400,20.3376007080078120,36.6181983947753900,264.1911010742187500,93.2273864746093800,20.3388500213623050,29.2115192413330080,62,117,99,86,65,15419,2147503981,2147823195,2147768877,2147786715,2147319241,2147515520,2147807442,2148238217,74,7,12,50505
1346083598,5804,190.9600067138672000,20.4722003936767580,36.6273002624511700,263.0231933593750000,88.5375671386718800,20.4825992584228500,29.2002105712890620,64,118,99,86,65,15418,2147509705,2147851849,2147857764,2147785682,2147316443,2147530285,2147841005,2148242505,3537,8,12,17622
1346083672,5804,185.9199981689453000,20.5825996398925780,36.6279983520507800,263.8503112792969000,85.4253692626953100,20.5780391693115230,29.1267890930175780,62,117,100,85,64,15419,2147502308,2147806500,2147709248,2147786331,2147317650,2147507757,2147775296,2148238080,135,7,12,46846
1346083738,5801,182.2200012207031200,20.7595996856689450,36.6389999389648440,262.9075012207031000,79.7388076782226600,20.7525100708007800,29.0938301086425780,64,116,100,86,63,15409,2147503451,2147800530,2147680027,2147786752,2147316617,2147504009,2147756827,2148236672,3458,8,12,17646
1346083815,5802,178.1199951171875000,20.8917999267578120,36.6545982360839840,258.5942077636719000,75.1102828979492200,20.8946094512939450,29.2143592834472660,66,116,101,86,64,15417,2147507940,2147799277,2147667629,2147788370,2147317522,2147511515,2147752621,2148236672,3514,7,12,62893
1346083881,5807,174.6199951171875000,21.0529994964599600,36.6810989379882800,251.5518035888672000,69.9020767211914000,21.0545997619628900,29.4480094909667970,66,116,99,85,65,15425,2147506057,2147798857,2147664201,2147784996,2147317339,2147508022,2147746706,2148235245,55,8,12,10977
1346083961,5805,170.2400054931640600,21.2157993316650400,36.7047004699707000,243.0867004394531200,64.8448410034179700,21.2100696563720700,29.7565498352050780,69,116,99,85,65,15426,2147506660,2147803245,2147670857,2147786715,2147321490,2147506898,2147750043,2148236123,3583,7,12,25983
1346084027,5805,166.5500030517578000,21.3015003204345700,36.7057991027832000,239.8135986328125000,62.1516914367675800,21.2929000854492200,29.8703193664550780,68,116,97,85,64,15430,2147506989,2147808576,2147687414,2147786633,2147321600,2147516141,2147756032,2148236626,3283,8,12,59966
1346084104,5806,162.0399932861328000,21.3640003204345700,36.6758003234863300,240.5570068359375000,60.0540390014648440,21.3574409484863280,29.8099098205566400,74,115,98,84,65,15430,2147513170,2147816438,2147704731,2147783131,2147322139,2147520283,2147768374,2148234697,33,8,12,6104
1346084170,5802,158.6100006103515600,21.4153995513916000,36.6484985351562500,243.6217041015625000,58.4418182373046900,21.4070491790771500,29.6511192321777340,74,118,100,85,64,15415,2147520009,2147823963,2147730706,2147785499,2147326080,2147521499,2147778496,2148234221,171,8,13,61938
1346084260,5806,155.1900024414062500,21.6501998901367200,36.6637992858886700,249.1510925292968800,50.9745788574218750,21.6370105743408200,29.3128509521484380,65,113,98,85,62,15430,2147517888,2147833764,2147744283,2147783305,2147326820,2147526162,2147786934,2148235410,949,8,12,28540
1346084425,5802,151.3999938964843800,21.7642993927001950,36.6706008911132800,249.6965942382812500,47.0336914062500000,21.7584705352783200,29.2395095825195300,67,115,99,85,64,15418,2147528301,2147864950,2147816969,2147785206,2147329280,2147547501,2147825188,2148239625,686,8,12,57361
1346084622,5803,146.8000030517578000,22.2915992736816400,36.7462997436523440,231.4783020019531200,31.1785697937011720,22.2478694915771500,29.8621196746826170,76,119,98,85,66,15427,2147560265,2147958592,2148052224,2147786304,2147340772,2147596150,2147934756,2148244955,2837,8,12,2071
1346084721,5802,143.0299987792968800,22.5224990844726560,36.7630996704101560,223.2996063232422000,22.7607994079589840,22.5082092285156250,30.1486206054687500,83,118,99,85,65,15422,2147580269,2148008594,2148151323,2147783131,2147346560,2147619465,2147977124,2148245504,299,8,12,29291
1346084842,5804,139.3500061035156200,22.6611003875732420,36.7299003601074200,219.6186981201172000,18.9396896362304700,22.6265106201171880,30.2821006774902340,92,124,99,88,66,15411,2147607094,2148062573,2148257472,2147783972,2147356196,2147647085,2148027684,2148245604,571,8,12,18035
1346084996,5804,135.0000000000000000,22.7793998718261720,36.7117004394531250,231.8674926757812500,14.0822095870971680,22.7770004272460940,29.6269607543945300,93,124,98,85,64,15399,2147649947,2148163145,2148466962,2147786157,2147370633,2147690907,2148118006,2148254171,1162,7,12,23226
1346085117,5803,131.0899963378906200,22.9566001892089840,36.6828002929687500,232.4001007080078000,8.3386030197143550,22.9551200866699220,29.5294799804687500,102,126,100,85,64,15395,2147683053,2148248749,2148623369,2147787008,2147389595,2147735369,2148178377,2148262016,549,7,12,28431
1346085251,5802,126.5899963378906200,23.2717990875244140,36.6445999145507800,233.3491973876953000,-1.3334959745407104,23.2554798126220700,29.3635692596435550,102,124,98,87,64,15390,2147758573,2148397504,2148893622,2147788726,2147418770,2147799936,2148292580,2148267437,326,8,12,32403
1346085361,5801,123.0899963378906200,23.4643993377685550,36.6572990417480500,230.8603057861328000,-7.1891160011291500,23.4375801086425780,29.4056797027587900,112,127,99,87,65,15381,2147823981,2148524086,2149119360,2147792182,2147440274,2147851465,2148384740,2148272896,1061,8,12,29466
1346085539,5801,118.6699981689453100,23.6135005950927730,36.5998992919921900,233.4273986816406200,-12.4768800735473630,23.6022090911865230,29.2199707031250000,122,132,101,86,63,15368,2147964214,2148818834,2149674678,2147798674,2147500233,2147976676,2148605714,2148287003,1120,8,12,1660
1346085649,5804,114.8099975585937500,23.7984008789062500,36.5798988342285160,234.7826995849609400,-17.6485900878906250,23.7633800506591800,29.0929298400878900,121,129,99,86,64,15372,2148052160,2148972982,2149938267,2147805083,2147532763,2148046272,2148710994,2148299574,626,8,12,4031
1346085781,5804,111.5699996948242200,24.0734996795654300,36.5913009643554700,233.4382019042968800,-26.7754497528076170,24.0482196807861330,29.0407505035400400,148,137,100,87,65,15343,2148203465,2149284288,2150521517,2147818020,2147590418,2148157961,2148923529,2148313389,614,8,12,20753
1346085913,5802,107.9000015258789000,24.2091007232666000,36.5794982910156250,232.3430938720703000,-31.4451904296875000,24.1941699981689450,29.0328006744384770,161,134,100,88,61,15320,2148411510,2149674733,2151196406,2147832740,2147658386,2148279113,2149126747,2148336594,809,7,12,15881
1346086023,5802,103.8899993896484400,24.3605995178222660,36.5638999938964840,230.3724060058593800,-37.1556510925293000,24.3728408813476560,29.0529308319091800,176,135,100,88,65,15301,2148729755,2150270308,2152210578,2147856457,2147758436,2148456256,2149443922,2148367734,793,7,12,5134
1346086167,5805,99.7600021362304700,24.6821002960205080,36.5797004699707000,224.0883941650390600,-47.2111091613769500,24.6879806518554700,29.2243595123291000,175,143,102,88,65,15280,2149376704,2151480118,2154186779,2147902683,2147946038,2148802368,2150046646,2148425545,86,8,11,26759
1346086222,5804,97.8799972534179700,24.8402004241943360,36.5845985412597660,221.1481933593750000,-51.6412811279296900,24.8270492553710940,29.3111000061035160,188,148,102,89,63,15270,2149817334,2152282066,2155424749,2147933549,2148057536,2149016905,2150412928,2148462171,529,8,12,40083
1346086277,5804,96.1500015258789000,25.0039005279541000,36.5685005187988300,219.4696960449218800,-57.1210098266601560,24.9992599487304700,29.3242702484130860,200,149,104,90,64,15267,2150078994,2152703424,2155891044,2147945115,2148116544,2149087030,2150510262,2148475346,240,8,12,24826
1346086354,5802,94.3499984741211000,25.1277999877929700,36.5600013732910160,219.0921936035156200,-60.6538581848144500,25.1103992462158200,29.2982597351074220,187,151,102,89,66,15273,2150623917,2153631058,2157178934,2147977362,2148249499,2149324315,2150899501,2148518272,2672,8,12,52109
1346086477,5803,91.1399993896484400,25.2476997375488280,36.5233993530273440,219.2454986572265600,-64.8692321777343800,25.2431297302246100,29.2377605438232420,175,148,103,91,65,15276,2151131410,2154139382,2157174217,2147980333,2148379483,2149452004,2150920036,2148532260,1523,8,12,20649
1346086532,5801,89.0299987792968800,25.3453998565673830,36.5097007751464840,219.8928070068359400,-67.6577835083007800,25.3310108184814450,29.1711292266845700,145,147,102,90,65,15287,2152546121,2156440045,2160284160,2148072640,2148798418,2150165220,2151996406,2148646098,1227,8,12,17241
1346086587,5803,87.1399993896484400,25.5263996124267580,36.4908981323242200,219.4411010742187500,-73.5051422119140600,25.5154590606689450,29.1200294494628900,141,146,102,90,66,15292,2153687872,2158117430,2162267318,2148131602,2149175917,2150732416,2152773001,2148725494,1322,8,12,20092
1346086653,5803,85.3899993896484400,25.5832996368408200,36.4651985168457000,220.0637969970703000,-75.2108764648437500,25.5693206787109380,29.0684299468994140,125,140,102,91,65,15298,2154525330,2159247168,2163447451,2148172854,2149416969,2151141293,2153270802,2148782336,882,8,12,49704
1346086786,5802,83.1299972534179700,25.7325000762939450,36.4257011413574200,221.3796997070312500,-79.9541931152343800,25.7192001342773440,28.9453201293945300,122,139,101,89,65,15299,2156134290,2161318665,2165474816,2148250596,2149966619,2151927094,2154177353,2148883035,157,7,12,36227
1346086852,5804,81.3799972534179700,25.8178005218505860,36.3970985412597660,222.5713958740234400,-83.2723388671875000,25.8241596221923830,28.8466491699218750,119,135,102,89,65,15309,2157116982,2162451712,2166473280,2148294363,2150330752,2152443666,2154715364,2148939053,3037,7,12,7016
1346086951,5804,79.5800018310546900,25.9382991790771500,36.3843002319335940,223.5328063964843800,-86.0076828002929700,25.9107398986816400,28.7668399810791000,110,135,102,90,65,15313,2158424246,2164060928,2168047213,2148360201,2150841371,2153151771,2155486838,2149021650,2852,8,12,38898
1346087095,5803,77.1100006103515600,26.1564006805419920,36.3643989562988300,223.2675018310547000,-94.0817337036132800,26.1666698455810550,28.6791305541992200,104,134,101,91,64,15323,2162822116,2169892662,2174614061,2148641371,2152394331,2155439533,2158275136,2149330889,23,8,11,1158
1346087161,5803,75.1299972534179700,26.3083000183105470,36.3221015930175800,223.7147979736328000,-97.8508071899414000,26.2863197326660160,28.6111698150634770,105,138,98,89,62,15319,2164796699,2172022957,2176531200,2148764242,2153117101,2156367085,2159220224,2149440621,2824,8,12,63762
1346087238,5804,73.5100021362304700,26.3824996948242200,36.3073997497558600,224.6275939941406200,-100.2373962402343800,26.3621406555175780,28.5383491516113280,103,139,101,90,62,15321,2167290989,2175037302,2179704054,2148935606,2154042002,2157665252,2160722669,2149613056,2481,8,12,17189
1346087416,5801,71.3300018310546900,26.4939994812011720,36.2877006530761700,226.3314971923828000,-103.8283996582031200,26.4763202667236330,28.4139595031738280,93,137,102,90,63,15314,2171005833,2178893586,2183078162,2149141339,2155623990,2159612562,2162587364,2149831497,1523,8,12,64591
1346087493,5798,69.1100006103515600,26.5526008605957030,36.2780990600585940,226.9627990722656200,-105.8392028808593800,26.5403003692626950,28.3597202301025400,90,140,103,90,60,15314,2173999698,2181669156,2185145371,2149324534,2157041846,2161151497,2163884873,2149993764,1557,8,12,59953
1346087559,5803,66.9599990844726600,26.6912002563476560,36.2896995544433600,231.3123016357422000,-111.6056976318359400,26.7239799499511720,28.0886993408203120,84,138,102,91,59,15318,2176269641,2183821833,2186880228,2149517632,2158669686,2162918628,2165338870,2150173988,1370,8,11,64482
1346087625,5802,65.2399978637695300,26.8376998901367200,36.2615013122558600,233.7086944580078000,-114.7139968872070300,26.8230991363525400,27.9425601959228500,84,134,106,91,61,15324,2179794642,2187971026,2191242313,2149853942,2161152795,2165707675,2167930733,2150462454,504,8,11,19367
1346087714,5806,63.1300010681152340,26.9388008117675780,36.2377014160156250,234.2915954589843800,-117.7474975585937500,26.9199199676513670,27.8793792724609380,85,138,102,90,61,15310,2185896164,2194805942,2198085458,2150451638,2165255990,2170322669,2172122569,2150936804,3590,8,12,12622
1346087780,5805,60.9099998474121100,27.0452003479003900,36.1814002990722660,235.7093048095703000,-121.4834976196289000,27.0392704010009770,27.7706394195556640,81,141,103,92,60,15307,2189767515,2198427035,2201235300,2150816164,2167888996,2173033152,2174328374,2151199954,3386,8,12,60084
1346087857,5805,59.6399993896484400,27.2285995483398440,36.1506996154785160,236.8383941650390600,-126.9910964965820300,27.2154407501220700,27.6535892486572270,80,142,105,89,60,15302,2189844672,2197796105,2199970432,2150807890,2168477760,2173405001,2174275145,2151197997,2935,8,12,36089
1346088067,5807,56.8899993896484400,27.4484996795654300,36.1113014221191400,238.7660064697265600,-134.0644073486328000,27.4420890808105470,27.4832401275634770,77,145,102,92,61,15286,2195082870,2202480612,2203831104,2151418029,2172492260,2177359122,2177375414,2151617380,40,8,11,57310
1346088122,5803,55.1899986267089840,27.5128002166748050,36.1111984252929700,239.3114929199218800,-135.7975006103515600,27.4976902008056640,27.4385395050048830,74,141,104,91,60,15298,2198256091,2205511030,2206615360,2151848822,2175006793,2179968996,2179523328,2151913965,169,8,11,34988
1346088276,5804,52.7000007629394500,27.7056007385253900,36.0806007385253900,239.0471954345703000,-140.3954010009765600,27.6453495025634770,27.3942604064941400,74,140,102,146,62,15295,2202589412,2209517001,2210328594,2152474761,2178973485,2183860251,2182596178,2152326244,540,8,11,61873
1346088404,5806,50.8300018310546900,27.9626998901367200,36.0539016723632800,237.4257049560547000,-150.0083007812500000,27.9546794891357420,27.3480091094970700,69,140,103,92,60,15296,2203226331,2209103862,2209236077,2152725184,2181444553,2185614793,2183356379,2152466304,979,7,11,19942
1346088557,5802,48.9700012207031250,28.1506996154785160,36.0270004272460940,236.3665008544922000,-155.9557952880859400,28.1465091705322270,27.3222293853759770,69,146,104,90,58,15298,2204556589,2210174427,2210125577,2153133101,2183723117,2187575552,2184741613,2152687734,873,7,11,57139
1346088672,5803,47.9300003051757800,28.1858005523681640,36.0138015747070300,235.8869934082031200,-157.2532958984375000,28.1884002685546880,27.3274898529052730,69,139,101,92,57,15305,2206942802,2212473910,2212394605,2153688009,2186685549,2190271305,2186733732,2152984749,758,8,12,30003
1346088765,5804,45.5999984741210940,28.2886009216308600,35.9593009948730500,234.5390930175781200,-160.5063934326172000,28.2935104370117200,27.3472690582275400,69,135,101,91,56,15303,2213814966,2219588681,2219526985,2154985792,2194159003,2197440996,2192428406,2153777728,80,7,11,56918
1346088834,5804,43.9099998474121100,28.3451004028320300,35.9410018920898440,233.4606018066406200,-162.1719970703125000,28.3473606109619140,27.3746299743652340,66,140,103,92,57,15310,2220346605,2226519021,2226783698,2156350509,2200490742,2203865325,2197857161,2154570066,2782,8,12,13845
1346088950,5804,41.7799987792968750,28.3586006164550780,35.9384002685546900,232.5133056640625000,-162.7964935302734400,28.3675594329834000,27.4091606140136720,65,140,101,90,56,15310,2219836388,2225001078,2224948333,2156931392,2203256301,2205387986,2198182226,2154772260,1996,8,11,64205
1346089007,5806,39.8400001525878900,28.3654994964599600,35.9382019042968750,232.1472930908203000,-162.9320983886718800,28.3719501495361330,27.4237499237060550,65,137,101,91,56,15304,2223012736,2228013467,2227931574,2158145563,2209170459,2210334528,2201595227,2155372333,2298,8,11,53538